Location: Beekmeers
(50.8953°N, 3.6968°E)
Time: 17:35:03
(UTC+00:00)

COBE Rocket - Pass Details

Date: 03 August 2024
Orbit: 676 x 777 km, 97.1° (Epoch: 06 September)

Event Time Altitude Azimuth Distance (km) Brightness Sun altitude
Rises 00:32:12 0° 16° (NNE) 3,105 8.7 -21.1°
Reaches altitude 10° 00:34:33 10° 21° (NNE) 2,168 7.5 -21.0°
Maximum altitude 00:39:11 53° 98° (E) 848 4.2 -20.9°
Enters shadow 00:40:28 40° 147° (SSE) 1,007 4.3 -20.8°
